Wenatchee, WA

6:44 PM PST on November 22, 2017 (GMT -0800)
Pangborn Memorial

Weather History for KEAT - May, 2013

Change the Weather History Date:

Saturday, May 18, 2013

  Actual Average Record
Temperature  
Mean Temperature 60 °F 54 °F  
Max Temperature 69 °F 66 °F 97 °F (2006)
Min Temperature 51 °F 42 °F 39 °F (1989)
Degree Days  
Heating Degree Days 5 11  
Month to date heating degree days 64 243  
Since 1 July heating degree days 5247 6822  
Cooling Degree Days 0 0  
Month to date cooling degree days 57 0  
Year to date cooling degree days 60 0  
Growing Degree Days 10 (Base 50)    
Moisture  
Dew Point 35 °F    
Average Humidity 43    
Maximum Humidity 59    
Minimum Humidity 27    
Precipitation  
Precipitation 0.00 in 0.06 in 0.41 in (1981)
Month to date precipitation 0.04 0.88  
Year to date precipitation 2.03 7.15  
Snow  
Snow 0.00 in 0.00 in - ()
Month to date snowfall 0.4  
Since 1 July snowfall 54.0  
Snow Depth -    
Sea Level Pressure  
Sea Level Pressure 30.01 in    
Wind  
Wind Speed 13 mph (WNW)    
Max Wind Speed 23 mph    
Max Gust Speed 29 mph    
Visibility 10 miles    
Events      
T = Trace of Precipitation, MM = Missing Value Source: NWS Daily Summary

Daily Weather History Graph

Daily Weather History Graph

Search for Another Location

Airport or City:

Trip Planner

Search our weather history database for the weather conditions in past years. The results will help you decide how hot, cold, wet, or windy it might be!

Date:

Astronomy

May. 18, 2013 Rise Set
Actual Time 5:20 AM PDT 8:35 PM PDT
Civil Twilight 4:43 AM PDT 9:12 PM PDT
Nautical Twilight 3:54 AM PDT 10:00 PM PDT
Astronomical Twilight 2:54 AM PDT 11:02 PM PDT
Moon 1:16 PM PDT (5/18) 1:44 AM PDT (5/18)
Length of Visible Light 16h 29m
Length of Day
15h 14m
First Quarter, 56% of the Moon is Illuminated
May 18
First Quarter
May 24
Full
May 31
Last Quarter
Jun 8
New
Jun 16
First Quarter

Hourly Weather History & Observations

Time (PDT) Temp. Dew Point Humidity Pressure Visibility Wind Dir Wind Speed Gust Speed Precip Events Conditions
12:55 AM 57.0 °F 37.0 °F 47% 29.94 in 10.0 mi WNW 10.4 mph - N/A   Overcast
1:55 AM 55.9 °F 37.0 °F 49% 29.95 in 10.0 mi NW 6.9 mph - N/A   Overcast
2:55 AM 55.9 °F 37.0 °F 49% 29.95 in 10.0 mi WNW 10.4 mph - N/A   Overcast
3:55 AM 54.0 °F 37.0 °F 53% 29.95 in 10.0 mi NW 8.1 mph - N/A   Mostly Cloudy
4:55 AM 53.1 °F 37.0 °F 55% 29.96 in 10.0 mi WNW 9.2 mph - N/A   Scattered Clouds
5:55 AM 52.0 °F 37.0 °F 57% 29.98 in 10.0 mi WNW 6.9 mph - N/A   Mostly Cloudy
6:55 AM 55.0 °F 37.0 °F 51% 29.99 in 10.0 mi NW 10.4 mph - N/A   Mostly Cloudy
7:55 AM 57.0 °F 36.0 °F 45% 29.99 in 10.0 mi WNW 11.5 mph - N/A   Overcast
8:55 AM 59.0 °F 36.0 °F 42% 29.99 in 10.0 mi WNW 12.7 mph - N/A   Partly Cloudy
9:55 AM 61.0 °F 34.0 °F 36% 29.99 in 10.0 mi WNW 17.3 mph - N/A   Mostly Cloudy
10:55 AM 64.9 °F 34.0 °F 32% 29.99 in 10.0 mi NW 13.8 mph - N/A   Mostly Cloudy
12:55 PM 66.9 °F 34.0 °F 30% 29.99 in 10.0 mi WNW 11.5 mph - N/A   Clear
1:55 PM 66.9 °F 34.0 °F 30% 29.99 in 10.0 mi WNW 11.5 mph - N/A   Partly Cloudy
3:55 PM 68.0 °F 34.0 °F 28% 29.99 in 10.0 mi WNW 19.6 mph 24.2 mph N/A   Partly Cloudy
4:55 PM 68.0 °F 33.1 °F 27% 30.00 in 10.0 mi NW 17.3 mph - N/A   Mostly Cloudy
5:55 PM 66.9 °F 33.1 °F 28% 30.01 in 10.0 mi NW 15.0 mph - N/A   Mostly Cloudy
6:55 PM 66.0 °F 32.0 °F 28% 30.03 in 10.0 mi WNW 18.4 mph - N/A   Partly Cloudy
7:55 PM 61.0 °F 33.1 °F 35% 30.06 in 10.0 mi NW 19.6 mph 27.6 mph N/A   Clear
8:55 PM 57.9 °F 33.1 °F 39% 30.09 in 10.0 mi WNW 20.7 mph 26.5 mph N/A   Clear
9:55 PM 55.9 °F 34.0 °F 44% 30.12 in 10.0 mi WNW 15.0 mph - N/A   Clear
10:55 PM 55.0 °F 33.1 °F 43% 30.14 in 10.0 mi WNW 12.7 mph - N/A   Clear
11:55 PM 54.0 °F 34.0 °F 47% 30.16 in 10.0 mi WNW 13.8 mph - N/A   Clear